Wind_Speed
14 14 14 13 12 12 11 10 9 8 8 7 6 4 3 3 3 3 4 4 5 4 4 4 4 4 5 5 5 6 6 7 7 8 8 8 9 9 10 11 12 13 14
16 16 16 15 14 14 13 12 11 11 11 10 8 7 6 6 5 5 5 6 6 6 6 5 5 5 6 6 7 8 8 9 9 10 10 11 12 12 13 13 14 15 15
18 18 18 17 16 16 15 14 14 13 13 13 12 10 9 9 8 8 7 8 7 7 7 7 7 7 7 8 8 9 10 11 11 12 13 14 14 15 15 16 16 17 17
21 21 20 19 18 18 17 17 16 16 16 16 15 14 12 12 11 11 10 10 10 10 10 10 10 9 9 9 10 10 11 12 13 14 15 16 16 17 18 19 19 19 20
24 24 23 22 21 20 20 19 18 18 18 18 17 17 16 15 15 14 13 13 13 13 13 13 12 12 12 12 12 12 13 14 15 16 17 17 18 19 20 21 21 22 22
27 27 26 25 23 23 22 22 21 20 20 20 20 19 19 19 18 18 17 17 17 16 16 16 15 15 14 14 14 14 15 16 16 17 18 19 20 20 21 22 23 24 24
28 29 29 28 26 25 25 25 24 23 22 22 21 22 22 21 21 21 21 21 20 20 19 18 18 17 17 16 16 16 16 17 18 19 20 20 21 22 23 23 24 25 26
31 30 30 29 28 27 27 27 27 26 25 24 23 24 24 24 24 24 24 23 23 22 21 21 20 20 20 19 18 18 18 19 19 20 21 22 22 22 23 24 25 26 26
34 32 29 28 29 29 29 30 29 28 27 27 26 25 25 25 26 25 26 26 25 24 23 23 23 22 22 21 21 20 20 20 20 21 22 23 23 23 24 25 26 26 27
36 34 32 31 31 31 31 31 31 30 29 28 27 26 26 26 26 26 27 27 26 26 25 25 25 24 24 23 23 22 22 22 22 22 23 23 23 24 25 25 26 27 27
36 35 34 33 33 31 30 30 31 32 31 30 29 28 27 27 26 27 27 28 28 27 26 26 27 27 26 25 25 24 23 23 23 23 23 23 24 24 25 25 26 27 27
37 35 35 34 33 32 31 31 31 32 32 32 31 30 29 29 29 28 28 29 29 29 29 29 29 29 28 27 26 26 25 24 23 23 24 24 25 25 25 25 25 26 27
34 34 33 33 33 33 32 32 31 31 32 32 32 31 30 30 30 30 30 31 31 31 32 32 31 31 30 29 28 27 26 25 24 24 24 25 26 25 25 25 25 26 27
32 32 32 32 32 33 34 34 34 33 33 33 32 33 32 30 30 30 31 32 31 32 32 32 33 32 31 31 30 29 27 26 25 25 26 26 26 26 25 25 26 26 26
31 32 32 33 34 35 35 35 35 34 33 32 32 33 34 33 32 32 32 32 33 32 32 31 31 31 30 30 29 28 27 27 26 25 26 26 26 25 25 25 26 26 26
30 31 32 33 34 34 34 34 35 34 34 35 34 34 33 33 32 33 33 33 33 32 31 31 31 31 30 29 28 27 26 25 25 25 26 26 26 25 24 25 24 25 25
27 29 30 31 31 31 31 32 32 32 33 33 32 31 31 31 30 30 30 31 31 30 30 29 29 28 27 26 25 24 25 25 25 25 25 25 25 25 25 24 24 24 25
22 24 26 26 27 28 29 29 29 30 29 28 28 28 29 28 28 29 29 29 29 28 28 27 25 25 24 24 23 24 24 25 25 25 24 24 24 24 24 24 24 24 25
16 18 20 21 22 23 24 24 25 25 25 25 25 25 25 25 25 24 24 24 24 24 23 23 22 22 21 21 22 23 23 24 24 23 23 23 23 23 23 24 24 24 24
10 12 14 16 16 17 18 20 20 21 22 22 22 21 21 20 20 20 20 20 20 19 18 18 18 18 18 19 20 20 21 21 22 22 22 22 22 22 22 22 23 24 25
7 8 9 10 11 13 15 16 17 18 18 18 18 18 17 17 18 18 17 17 16 15 14 14 15 15 16 17 17 18 19 20 21 21 21 21 21 21 21 22 23 24 25
8 9 9 9 10 11 12 13 14 15 15 15 15 14 15 15 15 15 14 14 13 13 13 14 14 15 15 16 17 18 18 19 20 20 20 19 20 21 21 21 22 23 22
11 10 10 10 11 12 12 12 13 14 15 16 17 16 16 15 14 14 13 13 12 12 12 12 13 13 14 14 15 16 17 18 18 19 19 19 19 20 20 21 20 20 21
13 12 11 11 10 10 11 12 13 14 15 16 16 17 16 16 16 15 14 13 13 13 13 13 13 13 13 14 14 15 15 16 16 17 17 17 18 18 18 19 19 19 20
15 14 13 12 11 10 10 10 12 13 15 16 15 15 16 15 15 14 14 14 13 13 13 13 13 13 13 13 13 13 13 13 14 14 14 15 16 16 17 17 18 18 19
18 17 15 13 12 10 9 9 9 11 12 13 14 14 15 15 15 14 14 14 13 13 13 13 12 12 12 12 11 11 11 10 10 10 11 12 13 13 13 14 15 16 17
Wind_Direction
275 279 282 283 283 283 283 281 279 280 285 288 290 293 277 254 242 232 232 235 238 242 243 248 258 265 272 277 279 284 290 295 295 294 293 291 288 284 280 275 268 265 261
269 273 276 277 279 279 279 277 275 272 272 273 274 274 274 267 258 253 249 247 249 251 255 257 263 272 278 281 285 287 288 290 291 290 289 288 287 284 281 277 273 270 267
264 268 271 272 274 276 276 274 273 271 267 266 266 266 267 265 261 258 258 258 259 262 264 266 270 275 279 282 286 288 287 288 289 288 286 286 285 283 281 276 273 271 268
261 265 268 269 272 273 273 272 270 268 266 263 262 263 262 261 260 261 262 263 263 263 264 267 270 271 275 280 284 286 287 287 288 288 287 285 284 282 280 277 273 271 269
259 263 265 267 270 271 271 271 268 266 264 262 262 261 262 260 260 262 263 262 263 264 265 267 269 271 274 278 281 283 285 286 286 286 286 286 284 282 280 278 275 271 269
259 261 263 263 267 268 268 268 267 265 263 261 261 262 264 260 258 260 261 261 262 263 264 265 267 269 272 275 279 281 284 287 286 285 285 285 284 282 280 278 276 273 270
260 264 264 263 265 266 267 267 266 264 262 260 259 259 261 260 258 259 260 261 262 262 263 264 266 269 273 275 277 280 283 285 285 285 284 284 282 281 280 278 276 274 272
260 263 264 264 264 267 268 265 264 263 262 260 258 257 258 257 257 259 260 260 261 260 261 263 265 269 271 273 275 278 282 283 283 284 285 284 282 281 280 279 277 275 272
263 263 266 268 265 265 265 261 258 259 259 258 258 256 257 257 257 258 259 259 259 260 262 263 265 267 270 271 274 278 281 282 283 284 284 283 282 281 279 278 276 274 272
263 265 267 268 266 266 267 261 255 254 255 256 256 255 255 256 257 258 259 258 258 260 260 261 263 265 268 270 273 276 279 281 282 283 284 284 283 282 280 279 277 274 272
261 263 264 266 267 267 266 262 258 255 254 253 253 252 253 255 257 259 258 257 257 257 259 260 262 265 268 270 273 275 277 279 280 281 281 283 283 282 282 280 278 276 272
259 262 263 264 265 265 266 264 262 257 255 253 251 252 252 254 256 258 257 257 256 255 257 259 262 264 267 269 271 274 275 277 278 278 279 281 282 282 282 281 280 277 274
259 259 261 263 266 264 263 263 261 259 256 255 251 251 253 254 254 255 256 256 256 255 256 258 260 261 264 267 270 272 273 274 276 277 278 279 281 281 280 280 280 278 275
257 258 260 263 263 264 267 266 263 265 261 258 254 253 253 252 253 255 256 255 255 255 255 257 257 258 262 265 268 270 270 272 274 276 278 278 279 279 279 278 278 278 275
257 258 261 263 264 265 267 265 262 263 262 260 258 255 254 254 256 256 255 256 256 256 256 256 258 258 261 264 265 266 267 269 273 277 277 278 278 278 279 278 276 275 274
259 260 262 263 263 265 265 263 262 262 259 259 259 257 255 254 257 257 257 258 258 258 257 256 257 259 260 262 262 263 266 268 272 276 277 277 277 278 279 279 277 275 273
261 262 263 263 263 263 262 261 261 259 258 255 254 256 255 256 258 256 256 256 255 257 257 257 257 258 257 257 259 261 264 267 271 274 277 278 277 277 278 279 276 274 274
264 264 264 263 261 260 259 257 256 254 253 252 253 256 255 256 256 254 257 257 256 256 255 255 255 255 256 255 257 260 263 267 271 274 277 278 278 278 279 278 277 275 276
268 266 263 261 260 258 256 255 254 252 252 252 253 253 253 254 252 252 253 254 253 253 252 252 253 254 254 257 259 262 265 269 273 276 278 278 279 280 280 278 277 276 277
280 277 270 263 260 257 256 252 249 249 249 249 248 247 247 247 248 246 246 247 248 248 248 248 249 252 255 258 261 264 266 270 273 276 279 279 280 281 280 279 278 277 276
315 305 291 277 268 263 261 258 252 246 244 242 241 241 241 243 243 240 240 242 242 243 245 246 249 253 257 259 261 264 268 270 273 276 278 280 281 281 282 283 282 280 278
335 324 313 300 289 278 270 262 253 250 243 239 237 238 239 239 239 238 235 235 236 240 243 245 249 253 256 259 263 265 269 271 273 275 278 280 282 284 287 287 286 284 283
352 340 328 311 297 284 273 263 254 250 247 244 242 240 239 237 236 234 231 231 233 235 239 244 248 252 256 260 263 266 269 271 273 274 276 279 283 286 287 289 289 287 286
357 349 339 328 314 297 280 269 262 256 251 246 244 241 239 237 236 235 235 234 235 238 240 243 247 253 257 260 263 266 270 273 276 278 280 282 284 288 291 293 294 294 292
4 356 346 337 326 313 297 283 268 258 252 248 244 239 236 232 229 229 230 233 236 238 239 242 247 251 255 260 264 269 273 276 280 285 287 289 291 292 294 297 299 301 303
11 5 358 349 340 327 311 295 278 264 254 247 243 238 233 229 228 225 227 229 231 235 238 240 243 247 251 257 263 270 275 280 286 292 297 300 300 299 300 302 306 308 310
Height
5901 5901 5901 5901 5902 5902 5902 5902 5903 5903 5904 5904 5904 5905 5905 5906 5906 5907 5907 5908 5909 5909 5910 5911 5911 5911 5912 5912 5912 5913 5913 5913 5913 5914 5914 5914 5914 5914 5915 5915 5916 5916 5916
5897 5898 5898 5898 5898 5899 5899 5899 5900 5900 5901 5901 5902 5903 5903 5904 5905 5905 5906 5906 5907 5908 5908 5909 5909 5909 5910 5910 5910 5911 5911 5911 5911 5911 5912 5912 5912 5912 5912 5913 5913 5913 5914
5892 5893 5893 5894 5894 5895 5895 5895 5896 5897 5897 5898 5899 5900 5900 5901 5902 5903 5903 5904 5905 5905 5906 5906 5907 5907 5907 5907 5908 5908 5908 5908 5908 5908 5908 5909 5909 5909 5909 5909 5910 5910 5910
5887 5888 5888 5889 5890 5890 5891 5891 5892 5893 5893 5894 5895 5896 5897 5898 5899 5900 5900 5901 5901 5902 5903 5904 5904 5904 5904 5905 5905 5905 5905 5905 5905 5905 5905 5905 5905 5905 5905 5905 5906 5906 5906
5881 5882 5882 5883 5884 5885 5886 5887 5888 5889 5889 5890 5890 5891 5892 5894 5895 5896 5896 5897 5898 5899 5900 5900 5901 5901 5901 5901 5901 5901 5901 5901 5901 5901 5901 5901 5901 5901 5901 5901 5901 5901 5901
5874 5875 5876 5877 5878 5880 5881 5882 5882 5884 5885 5885 5886 5886 5887 5888 5890 5891 5892 5893 5894 5895 5895 5896 5897 5897 5897 5897 5897 5897 5897 5897 5897 5896 5896 5896 5896 5896 5896 5896 5896 5896 5896
5868 5868 5870 5871 5872 5873 5875 5876 5877 5878 5879 5880 5881 5881 5882 5883 5884 5885 5887 5888 5889 5890 5890 5891 5892 5892 5892 5893 5893 5893 5892 5892 5892 5891 5891 5891 5890 5890 5890 5890 5890 5890 5890
5861 5862 5863 5864 5866 5867 5868 5869 5870 5871 5873 5874 5875 5876 5877 5878 5878 5879 5880 5882 5883 5884 5885 5886 5887 5887 5887 5887 5888 5888 5888 5887 5886 5886 5886 5885 5885 5884 5884 5884 5884 5884 5884
5854 5855 5857 5857 5858 5859 5860 5862 5863 5865 5866 5867 5868 5870 5871 5872 5872 5874 5874 5875 5876 5877 5879 5880 5881 5881 5882 5882 5882 5882 5882 5882 5881 5881 5880 5880 5879 5878 5878 5878 5878 5878 5878
5847 5848 5849 5850 5851 5852 5853 5854 5856 5857 5858 5860 5861 5862 5864 5865 5866 5867 5868 5868 5869 5871 5872 5873 5874 5875 5875 5876 5876 5877 5876 5876 5876 5875 5874 5874 5873 5872 5872 5872 5871 5871 5871
5839 5840 5842 5843 5844 5845 5846 5847 5848 5849 5851 5852 5853 5855 5856 5857 5858 5860 5861 5862 5863 5864 5865 5866 5867 5868 5869 5869 5870 5870 5870 5870 5870 5869 5869 5868 5867 5866 5866 5865 5865 5865 5864
5830 5832 5834 5835 5836 5837 5838 5839 5840 5841 5843 5844 5845 5847 5848 5850 5851 5852 5854 5855 5856 5858 5859 5859 5860 5861 5862 5862 5863 5863 5864 5864 5864 5863 5863 5862 5861 5860 5860 5859 5858 5858 5858
5821 5823 5825 5826 5827 5829 5830 5831 5832 5833 5834 5835 5837 5839 5840 5842 5843 5844 5846 5847 5849 5850 5852 5853 5853 5854 5855 5855 5856 5856 5856 5857 5857 5857 5856 5856 5855 5854 5853 5853 5852 5852 5851
5813 5815 5816 5818 5819 5820 5821 5821 5822 5824 5825 5827 5828 5830 5831 5833 5835 5836 5838 5839 5841 5842 5843 5845 5845 5847 5847 5848 5848 5849 5849 5850 5850 5850 5849 5849 5848 5848 5847 5846 5846 5845 5845
5804 5806 5808 5809 5810 5811 5811 5812 5813 5815 5816 5818 5819 5821 5823 5824 5826 5828 5829 5831 5833 5834 5835 5837 5838 5839 5840 5841 5841 5842 5843 5843 5843 5843 5843 5842 5842 5841 5840 5839 5839 5838 5838
5796 5797 5798 5800 5801 5802 5802 5803 5805 5806 5807 5809 5810 5812 5813 5815 5818 5819 5821 5822 5824 5825 5827 5829 5830 5832 5832 5834 5834 5835 5836 5837 5837 5837 5837 5836 5835 5834 5834 5833 5832 5832 5832
5787 5789 5790 5790 5792 5792 5793 5794 5795 5797 5798 5800 5801 5803 5805 5807 5809 5811 5812 5813 5815 5817 5819 5821 5822 5824 5825 5827 5828 5829 5830 5830 5831 5831 5830 5830 5829 5828 5827 5826 5825 5825 5825
5780 5780 5781 5782 5783 5783 5784 5786 5787 5789 5790 5792 5793 5795 5797 5799 5801 5803 5804 5806 5807 5809 5811 5813 5815 5817 5819 5820 5821 5823 5824 5824 5825 5825 5824 5823 5823 5822 5821 5820 5819 5819 5818
5774 5774 5775 5775 5776 5776 5777 5778 5779 5781 5782 5784 5786 5788 5790 5792 5793 5795 5797 5799 5801 5802 5805 5807 5809 5811 5813 5814 5816 5817 5818 5818 5819 5818 5818 5817 5816 5815 5814 5814 5813 5812 5811
5770 5769 5769 5769 5769 5770 5771 5772 5773 5775 5776 5778 5779 5781 5783 5785 5787 5789 5791 5793 5795 5797 5799 5801 5804 5806 5807 5809 5810 5811 5812 5813 5813 5812 5812 5811 5810 5809 5808 5807 5807 5805 5805
5767 5766 5766 5765 5765 5765 5765 5766 5767 5769 5771 5772 5774 5776 5778 5780 5782 5784 5786 5788 5791 5793 5795 5797 5799 5801 5803 5804 5805 5806 5807 5807 5807 5807 5806 5805 5805 5804 5803 5801 5800 5799 5798
5765 5764 5763 5762 5761 5761 5761 5762 5763 5764 5765 5767 5768 5770 5772 5775 5777 5779 5782 5784 5786 5789 5791 5793 5795 5797 5798 5799 5800 5801 5801 5802 5802 5801 5801 5800 5799 5798 5797 5796 5794 5793 5792
5763 5761 5760 5758 5758 5757 5757 5757 5757 5759 5760 5762 5763 5765 5767 5770 5772 5775 5777 5780 5783 5785 5787 5789 5791 5793 5794 5795 5795 5796 5796 5796 5796 5796 5795 5795 5794 5793 5792 5790 5789 5787 5786
5762 5759 5757 5755 5754 5753 5752 5752 5752 5753 5755 5756 5758 5760 5763 5765 5768 5771 5773 5776 5778 5781 5783 5785 5787 5788 5789 5790 5791 5792 5791 5791 5791 5791 5790 5790 5789 5788 5787 5785 5784 5782 5780
5761 5757 5755 5752 5750 5748 5747 5747 5747 5748 5749 5750 5752 5755 5758 5760 5763 5766 5769 5772 5774 5777 5779 5781 5783 5784 5785 5786 5787 5787 5787 5787 5787 5787 5786 5785 5784 5783 5782 5781 5779 5777 5775
5760 5756 5752 5749 5747 5745 5743 5742 5742 5742 5743 5745 5746 5749 5752 5755 5758 5761 5765 5767 5770 5773 5775 5777 5779 5780 5781 5782 5783 5783 5784 5784 5783 5783 5782 5782 5780 5779 5778 5776 5775 5773 5771